W7KKE-3 Weather Reports


Display with metric or nautical units.
time (UTC)temp
F
wind
direction
speed
MPH
gust
MPH
rain 1hr
in
rain 24hr
in
rain mn
in
humidity
%
barometer
mb
20170323101946 44 106 2.0 5.0 0.00 0.33 0.00 98 1020.4
20170323101446 44 86 1.0 5.0 0.00 0.33 0.00 98 1020.4
20170323100946 44 82 1.0 5.0 0.00 0.33 0.00 98 1020.4
20170323100445 44 91 3.0 5.0 0.00 0.33 0.00 98 1020.4
20170323095946 44 86 2.0 5.0 0.00 0.33 0.00 98 1020.4
20170323095445 44 109 3.0 4.0 0.00 0.33 0.00 98 1020.4
20170323094946 43 67 2.0 4.0 0.00 0.33 0.00 98 1020.4
20170323094446 44 68 2.0 5.0 0.00 0.33 0.00 98 1020.4
20170323093946 44 61 2.0 5.0 0.00 0.33 0.00 98 1020.5
20170323093445 44 78 3.0 5.0 0.00 0.33 0.00 98 1020.6
20170323092947 44 113 3.0 5.0 0.00 0.33 0.00 98 1020.6
20170323092446 44 96 2.0 6.0 0.00 0.33 0.00 98 1020.6
20170323091945 44 77 2.0 6.0 0.00 0.33 0.00 98 1020.7
20170323091446 44 102 2.0 6.0 0.00 0.33 0.00 98 1020.7
20170323090945 44 102 4.0 6.0 0.00 0.33 0.00 98 1020.6
20170323090446 44 82 3.0 6.0 0.00 0.33 0.00 98 1020.6
20170323085946 44 77 2.0 4.0 0.00 0.33 0.00 98 1020.6
20170323085445 44 99 2.0 4.0 0.00 0.33 0.00 98 1020.6
20170323084945 44 99 2.0 4.0 0.00 0.33 0.00 98 1020.6
20170323084446 44 88 2.0 4.0 0.00 0.33 0.00 98 1020.6
20170323083945 44 82 0.0 4.0 0.00 0.33 0.00 97 1020.6
20170323083446 44 130 1.0 5.0 0.00 0.33 0.00 97 1020.6
20170323082946 44 92 2.0 5.0 0.00 0.33 0.00 97 1020.6
20170323082445 45 117 2.0 5.0 0.00 0.33 0.00 97 1020.7
20170323081945 45 71 2.0 5.0 0.00 0.33 0.00 97 1020.7
20170323081446 45 110 3.0 5.0 0.00 0.33 0.00 97 1020.7
20170323080945 45 86 2.0 6.0 0.00 0.33 0.00 97 1020.7
20170323080445 45 102 3.0 6.0 0.00 0.33 0.00 97 1020.7
20170323075946 45 85 4.0 6.0 0.00 0.36 0.00 97 1020.7
20170323075445 45 79 3.0 5.0 0.00 0.36 0.00 97 1020.8
20170323074946 46 98 3.0 7.0 0.01 0.36 0.00 97 1020.9
20170323074446 46 107 3.0 7.0 0.01 0.36 0.00 97 1020.9
20170323073945 46 92 4.0 7.0 0.01 0.36 0.00 97 1020.9
20170323073445 46 92 3.0 5.0 0.01 0.36 0.00 97 1020.8
20170323072946 46 102 2.0 5.0 0.01 0.36 0.00 97 1020.9
20170323072445 46 60 0.0 7.0 0.01 0.36 0.00 97 1021.0
20170323071945 46 107 2.0 7.0 0.01 0.36 0.00 97 1020.9
20170323071446 46 72 3.0 7.0 0.01 0.36 0.00 97 1020.9
20170323070945 46 61 0.0 5.0 0.01 0.36 0.00 97 1020.9
20170323070445 46 170 3.0 5.0 0.01 0.36 0.00 97 1020.9
20170323065946 46 102 2.0 5.0 0.01 0.36 0.00 97 1020.8
20170323065445 46 79 2.0 5.0 0.01 0.36 0.36 96 1020.8
20170323064945 46 72 2.0 6.0 0.00 0.36 0.36 96 1020.8
20170323064446 46 56 3.0 6.0 0.00 0.35 0.35 96 1020.8
20170323063945 46 71 3.0 6.0 0.00 0.35 0.35 96 1020.9
20170323063445 46 71 3.0 6.0 0.00 0.35 0.35 96 1020.8
20170323062946 46 79 3.0 6.0 0.00 0.35 0.35 96 1020.8
20170323062445 47 71 2.0 6.0 0.00 0.35 0.35 96 1020.7
20170323061945 47 88 3.0 6.0 0.00 0.35 0.35 96 1020.8
20170323061446 47 64 3.0 6.0 0.00 0.35 0.35 96 1020.8
20170323060945 47 57 3.0 6.0 0.01 0.35 0.35 96 1020.8
20170323060445 47 88 3.0 6.0 0.01 0.35 0.35 96 1020.8
20170323054946 47 57 3.0 9.0 0.01 0.41 0.35 95 1020.5
20170323054446 47 114 3.0 9.0 0.01 0.41 0.35 95 1020.6
20170323053945 47 156 3.0 9.0 0.02 0.41 0.35 94 1020.6
20170323053446 47 179 1.0 11.0 0.02 0.41 0.35 94 1020.5
20170323052946 47 128 3.0 11.0 0.02 0.41 0.35 94 1020.5
20170323052445 48 177 4.0 11.0 0.02 0.41 0.35 95 1020.6
20170323051945 47 152 3.0 8.0 0.02 0.41 0.35 95 1020.6
20170323051446 47 229 5.0 8.0 0.02 0.41 0.35 95 1020.6
20170323045445 47 110 0.0 7.0 0.01 0.40 0.34 93 1020.5
20170323044945 47 98 1.0 7.0 0.01 0.40 0.34 92 1020.5
20170323044446 47 142 2.0 6.0 0.01 0.40 0.34 91 1020.4
20170323043945 47 112 2.0 6.0 0.00 0.40 0.33 91 1020.4
20170323043445 48 106 3.0 5.0 0.00 0.40 0.33 90 1020.3
20170323042946 47 109 3.0 5.0 0.00 0.40 0.33 90 1020.3
20170323040945 48 98 2.0 8.0 0.00 0.40 0.33 89 1020.1
20170323040445 48 95 3.0 8.0 0.00 0.40 0.33 89 1020.0
20170323035946 49 68 3.0 5.0 0.00 0.40 0.33 88 1019.9
20170323035445 48 163 2.0 5.0 0.00 0.40 0.33 88 1019.9
20170323034945 48 163 2.0 5.0 0.00 0.40 0.33 87 1019.9
20170323034446 48 201 6.0 9.0 0.00 0.40 0.33 87 1019.9
20170323033945 48 180 2.0 9.0 0.00 0.40 0.33 87 1020.0
20170323033445 48 154 5.0 9.0 0.00 0.40 0.33 88 1019.8
20170323031446 48 240 3.0 6.0 0.00 0.40 0.33 88 1019.8
20170323025445 49 214 1.0 6.0 0.00 0.40 0.33 89 1019.7
20170323024945 49 226 3.0 13.0 0.00 0.40 0.33 88 1019.7
20170323024446 49 201 1.0 13.0 0.00 0.40 0.33 89 1019.6
20170323023945 49 197 6.0 13.0 0.00 0.40 0.33 89 1019.6
20170323023445 49 183 6.0 12.0 0.00 0.40 0.33 89 1019.5
20170323022946 49 224 8.0 12.0 0.00 0.40 0.33 89 1019.5
20170323022445 50 231 7.0 12.0 0.00 0.40 0.33 90 1019.4
20170323021945 50 226 3.0 11.0 0.00 0.40 0.33 90 1019.3
20170323021446 50 165 3.0 9.0 0.00 0.40 0.33 91 1019.2
20170323020946 50 172 3.0 11.0 0.00 0.40 0.33 91 1019.2
20170323020445 50 232 3.0 11.0 0.00 0.40 0.33 91 1019.1
20170323015946 50 236 4.0 11.0 0.00 0.40 0.33 91 1019.1
20170323015445 50 238 4.0 10.0 0.00 0.40 0.33 91 1019.3
20170323014945 50 242 4.0 10.0 0.00 0.40 0.33 91 1019.4
20170323014445 50 198 3.0 10.0 0.00 0.40 0.33 92 1019.5
20170323013945 50 249 4.0 10.0 0.00 0.40 0.33 91 1019.4
20170323013445 50 233 5.0 11.0 0.00 0.40 0.33 92 1019.3
20170323011445 50 218 4.0 9.0 0.00 0.40 0.33 92 1019.2
20170323010945 50 207 6.0 9.0 0.00 0.40 0.33 93 1019.3
20170323010445 50 215 3.0 9.0 0.00 0.40 0.33 93 1019.1
20170323005946 50 247 3.0 8.0 0.00 0.41 0.33 94 1019.1
20170323005445 50 205 4.0 11.0 0.00 0.41 0.33 94 1019.1
20170323004945 50 254 6.0 11.0 0.00 0.41 0.33 94 1019.1
20170323004445 50 264 6.0 11.0 0.00 0.41 0.33 94 1019.1
20170323003945 51 274 6.0 11.0 0.00 0.41 0.33 95 1019.1
20170323003445 51 239 6.0 12.0 0.00 0.41 0.33 95 1019.0
20170323002946 51 266 7.0 12.0 0.00 0.41 0.33 94 1019.0
20170323002445 50 268 6.0 12.0 0.00 0.41 0.33 94 1018.9
20170323001945 50 291 7.0 11.0 0.00 0.41 0.33 94 1018.9
20170323001445 50 268 7.0 14.0 0.00 0.41 0.33 94 1018.8
20170323000945 50 270 8.0 14.0 0.00 0.41 0.33 94 1018.8
20170323000445 50 249 9.0 14.0 0.00 0.41 0.33 94 1018.8
20170322235947 50 229 6.0 12.0 0.00 0.41 0.33 93 1018.7
20170322235445 50 263 2.0 7.0 0.00 0.41 0.33 94 1018.6
20170322234945 50 226 5.0 9.0 0.00 0.41 0.33 94 1018.6
20170322234445 51 176 6.0 9.0 0.00 0.41 0.33 94 1018.5
20170322233945 51 284 3.0 9.0 0.00 0.41 0.33 94 1018.5
20170322231945 51 267 4.0 8.0 0.00 0.41 0.33 95 1018.3
20170322231445 51 263 4.0 8.0 0.00 0.41 0.33 95 1018.3
20170322230945 51 267 3.0 8.0 0.00 0.41 0.33 95 1018.3
20170322230445 51 267 4.0 8.0 0.00 0.41 0.33 95 1018.3
20170322225946 51 253 5.0 8.0 0.00 0.41 0.33 95 1018.3
20170322225445 51 273 4.0 11.0 0.00 0.41 0.33 95 1018.2
20170322224945 51 260 6.0 11.0 0.00 0.41 0.33 95 1018.2
20170322224445 51 215 5.0 11.0 0.00 0.41 0.33 95 1018.2
20170322223945 51 249 4.0 8.0 0.00 0.41 0.33 95 1018.2
20170322223445 50 270 4.0 10.0 0.00 0.41 0.33 95 1018.1
20170322222946 51 278 6.0 10.0 0.00 0.41 0.33 95 1018.1
20170322222445 51 238 7.0 10.0 0.00 0.41 0.33 96 1018.1
20170322221945 51 278 5.0 12.0 0.00 0.41 0.33 96 1018.1
20170322221445 50 240 7.0 12.0 0.00 0.41 0.33 96 1018.0
20170322220945 51 245 7.0 12.0 0.00 0.41 0.33 96 1018.0
20170322220445 50 240 8.0 14.0 0.00 0.41 0.33 96 1017.9
20170322215946 50 260 5.0 14.0 0.00 0.41 0.33 96 1017.9
20170322213945 50 259 10.0 15.0 0.00 0.41 0.33 96 1017.7
20170322213445 50 253 9.0 15.0 0.00 0.41 0.33 96 1017.6
20170322212946 50 226 6.0 12.0 0.00 0.41 0.33 97 1017.5
20170322212445 50 191 7.0 11.0 0.00 0.41 0.33 97 1017.5
20170322211945 49 266 7.0 14.0 0.00 0.41 0.33 97 1017.4
20170322211445 50 229 8.0 14.0 0.00 0.41 0.33 97 1017.4
20170322210945 49 266 8.0 14.0 0.00 0.41 0.33 97 1017.4
20170322210445 49 233 8.0 14.0 0.00 0.41 0.33 97 1017.4
20170322205946 49 242 8.0 13.0 0.01 0.41 0.33 97 1017.3
20170322205445 49 259 9.0 12.0 0.01 0.41 0.33 97 1017.3
20170322204945 49 261 6.0 15.0 0.02 0.41 0.33 98 1017.3
20170322204445 49 257 5.0 15.0 0.02 0.41 0.33 98 1017.2
20170322203945 49 149 7.0 15.0 0.02 0.41 0.33 98 1017.2
20170322203445 49 219 6.0 12.0 0.02 0.41 0.33 98 1017.0
20170322201945 49 238 6.0 10.0 0.04 0.41 0.33 98 1016.8
20170322201445 49 242 4.0 10.0 0.04 0.41 0.33 98 1016.8
20170322200945 49 235 3.0 10.0 0.04 0.41 0.33 98 1016.8
20170322200445 49 225 5.0 12.0 0.04 0.41 0.33 98 1016.8
20170322195946 49 224 4.0 12.0 0.03 0.37 0.32 98 1016.8
20170322195445 49 217 7.0 12.0 0.03 0.37 0.32 98 1016.7
20170322194945 49 275 5.0 12.0 0.04 0.37 0.32 98 1016.6
20170322194445 49 253 4.0 15.0 0.04 0.37 0.31 98 1016.6
20170322193945 49 281 7.0 15.0 0.05 0.37 0.31 98 1016.6
20170322193445 49 197 6.0 15.0 0.05 0.37 0.31 98 1016.5
20170322192946 49 275 6.0 15.0 0.04 0.37 0.30 98 1016.4
20170322192445 49 246 7.0 14.0 0.04 0.37 0.30 97 1016.4
20170322191945 49 260 8.0 14.0 0.03 0.37 0.29 98 1016.3
20170322191445 49 270 4.0 10.0 0.03 0.37 0.29 98 1016.1
20170322190945 49 261 4.0 10.0 0.03 0.37 0.29 98 1016.0
20170322190445 49 225 4.0 10.0 0.03 0.37 0.29 97 1016.0
20170322185946 49 254 5.0 10.0 0.03 0.34 0.29 97 1016.0
20170322184445 49 249 9.0 17.0 0.01 0.34 0.27 97 1015.8
20170322183945 50 284 8.0 13.0 0.00 0.34 0.27 97 1015.7
20170322183445 50 212 5.0 16.0 0.00 0.34 0.26 97 1015.5
20170322182946 50 249 7.0 16.0 0.00 0.34 0.26 97 1015.4
20170322182445 49 271 8.0 16.0 0.00 0.34 0.26 97 1015.3
20170322181945 50 228 7.0 14.0 0.00 0.34 0.26 97 1015.3
20170322181445 50 224 7.0 17.0 0.00 0.34 0.26 97 1015.2
20170322180945 50 210 7.0 17.0 0.00 0.34 0.26 97 1015.0
20170322180445 49 252 7.0 17.0 0.00 0.34 0.26 97 1014.9
20170322175946 49 271 8.0 17.0 0.00 0.34 0.26 97 1014.9
20170322175445 50 246 9.0 18.0 0.00 0.34 0.26 98 1014.7
20170322174945 50 260 7.0 18.0 0.00 0.34 0.26 98 1014.6
20170322174445 50 271 8.0 18.0 0.00 0.34 0.26 98 1014.4
20170322173945 50 238 8.0 16.0 0.00 0.34 0.26 98 1014.3
20170322173445 50 259 8.0 15.0 0.00 0.34 0.26 98 1014.2
20170322172946 49 198 9.0 15.0 0.00 0.34 0.26 98 1014.1
20170322172445 50 226 8.0 15.0 0.00 0.34 0.26 99 1014.0
20170322171945 50 253 10.0 16.0 0.00 0.34 0.26 99 1013.8
20170322171445 50 252 9.0 16.0 0.00 0.34 0.26 99 1013.7
20170322170945 50 257 7.0 16.0 0.00 0.34 0.26 99 1013.5
20170322170445 50 256 9.0 16.0 0.00 0.34 0.26 99 1013.4
20170322164945 50 228 9.0 17.0 0.02 0.34 0.26 99 1013.1
20170322164445 50 261 9.0 17.0 0.02 0.34 0.26 99 1013.0
20170322163945 50 240 6.0 16.0 0.03 0.34 0.26 99 1012.8
20170322163445 50 154 5.0 16.0 0.03 0.34 0.26 99 1012.6
20170322162946 50 142 6.0 16.0 0.04 0.34 0.26 99 1012.6
20170322162445 50 148 9.0 16.0 0.04 0.34 0.26 99 1012.5
20170322161945 50 177 7.0 15.0 0.07 0.34 0.26 99 1012.4
20170322161445 50 221 7.0 15.0 0.07 0.34 0.26 99 1012.2
20170322160945 50 210 6.0 15.0 0.10 0.34 0.26 99 1012.0
20170322160445 49 158 5.0 15.0 0.10 0.34 0.26 99 1012.0
20170322155946 49 163 9.0 15.0 0.09 0.26 0.26 99 1011.8
20170322155445 49 194 4.0 15.0 0.09 0.25 0.25 99 1011.7
20170322154945 49 225 5.0 15.0 0.08 0.25 0.25 99 1011.6
20170322152946 49 154 11.0 25.0 0.06 0.24 0.23 98 1011.4
20170322150945 49 113 2.0 10.0 0.03 0.24 0.17 98 1010.7
20170322150445 49 166 3.0 20.0 0.03 0.24 0.16 98 1010.6
20170322145945 49 176 3.0 20.0 0.09 0.22 0.16 98 1010.6
20170322145445 49 159 4.0 20.0 0.09 0.22 0.16 98 1010.6
20170322144945 49 81 8.0 18.0 0.10 0.22 0.16 98 1010.5
20170322144445 49 158 9.0 17.0 0.10 0.22 0.16 98 1010.5
20170322143945 49 158 5.0 17.0 0.11 0.22 0.16 98 1010.4
20170322143445 49 95 7.0 17.0 0.11 0.22 0.16 98 1010.4
20170322142945 49 127 8.0 17.0 0.11 0.22 0.16 98 1010.3
20170322142445 49 172 9.0 26.0 0.11 0.22 0.16 98 1010.3
20170322141945 49 151 8.0 26.0 0.11 0.22 0.16 98 1010.3
20170322141445 49 163 8.0 26.0 0.11 0.22 0.16 98 1010.2
20170322140945 49 173 11.0 22.0 0.08 0.22 0.16 97 1010.2
20170322140445 49 106 7.0 16.0 0.08 0.22 0.13 97 1010.1
20170322135945 49 170 4.0 16.0 0.02 0.14 0.09 97 1009.7
20170322135445 49 154 4.0 20.0 0.02 0.14 0.07 97 1009.6
20170322134945 49 158 3.0 20.0 0.01 0.14 0.06 97 1009.5
20170322132945 49 154 5.0 12.0 0.00 0.14 0.05 96 1009.5
20170322132444 49 95 4.0 9.0 0.00 0.14 0.05 96 1009.5
20170322131945 49 133 1.0 9.0 0.00 0.14 0.05 96 1009.5
20170322131445 49 173 5.0 9.0 0.00 0.14 0.05 96 1009.4
20170322130946 49 156 5.0 18.0 0.00 0.14 0.05 96 1009.4
20170322130445 49 134 6.0 18.0 0.00 0.14 0.05 96 1009.5
20170322125945 49 180 6.0 18.0 0.00 0.14 0.05 96 1009.6
20170322125445 49 190 5.0 16.0 0.00 0.14 0.05 96 1009.6
20170322124945 49 131 6.0 16.0 0.00 0.14 0.05 96 1009.5
20170322124445 49 91 6.0 12.0 0.00 0.14 0.05 96 1009.5
20170322123944 49 140 3.0 17.0 0.00 0.14 0.05 96 1009.4
20170322123444 49 116 4.0 17.0 0.00 0.14 0.05 97 1009.4
20170322122946 49 137 10.0 17.0 0.00 0.14 0.05 97 1009.4
20170322122444 49 162 6.0 13.0 0.00 0.14 0.05 97 1009.3
20170322121944 49 121 5.0 10.0 0.01 0.14 0.05 97 1009.3
20170322121445 49 137 7.0 11.0 0.01 0.14 0.05 97 1009.3
20170322114945 49 177 2.0 13.0 0.01 0.13 0.05 97 1009.1
20170322114445 49 102 8.0 13.0 0.01 0.13 0.05 97 1009.1
20170322113945 50 141 4.0 19.0 0.01 0.13 0.05 97 1009.0
20170322113446 49 155 4.0 19.0 0.01 0.13 0.05 97 1009.1
20170322112945 50 165 6.0 19.0 0.01 0.13 0.05 97 1009.1
20170322112444 50 184 5.0 9.0 0.01 0.13 0.05 97 1009.0
20170322111944 50 82 7.0 17.0 0.00 0.13 0.05 96 1009.0
20170322111445 50 149 3.0 17.0 0.00 0.13 0.04 96 1008.9
20170322110944 50 148 6.0 17.0 0.01 0.13 0.04 96 1008.9
20170322110444 50 145 8.0 14.0 0.01 0.13 0.04 96 1008.9
20170322105945 50 168 6.0 19.0 0.01 0.13 0.04 96 1009.0
20170322105444 50 149 9.0 19.0 0.01 0.13 0.04 96 1008.9
20170322104944 50 156 8.0 19.0 0.01 0.13 0.04 96 1008.9
20170322104445 50 159 10.0 16.0 0.01 0.13 0.04 96 1008.7
20170322103944 50 109 7.0 14.0 0.01 0.13 0.04 96 1008.6
20170322103444 50 162 6.0 12.0 0.01 0.13 0.04 96 1008.5
20170322102945 50 144 3.0 15.0 0.01 0.13 0.04 96 1008.4
20170322102444 50 81 4.0 15.0 0.01 0.13 0.04 96 1008.3